FW7922 Weather Reports


time (UTC)temp
F
wind
direction
speed
knots
gust
knots
rain 1hr
in
rain 24hr
in
rain mn
in
humidity
%
barometer
mb
20260507010020 58 132 0.0 0.9 0.00 0.13 0.13 99 1005.6
20260507005020 58 148 0.0 1.7 0.00 0.13 0.13 99 1005.5
20260507004018 58 178 0.0 3.5 0.00 0.13 0.13 99 1005.5
20260507003017 58 138 0.0 0.9 0.00 0.13 0.13 99 1005.4
20260507002018 58 144 0.0 1.7 0.00 0.13 0.13 99 1005.3
20260507001019 58 336 0.0 3.5 0.00 0.13 0.13 99 1005.3
20260507000039 58 123 0.0 0.9 0.00 0.13 0.13 100 1005.2
20260506235018 58 122 0.0 0.9 0.01 0.13 0.13 100 1005.2
20260506234018 58 132 0.0 1.7 0.01 0.13 0.13 100 1005.1
20260506233039 58 141 0.9 1.7 0.02 0.13 0.13 100 1005.1
20260506232041 58 0.0 0.0 0.02 0.13 0.13 100 1005.1
20260506231019 58 121 0.9 1.7 0.03 0.13 0.13 100 1005.1
20260506230019 58 122 0.0 0.9 0.04 0.13 0.13 100 1005.0
20260506225019 58 0.0 0.0 0.04 0.12 0.12 99 1005.1
20260506224057 58 106 0.0 0.9 0.05 0.12 0.12 99 1005.2
20260506223016 59 116 0.0 0.9 0.05 0.11 0.11 99 1005.2
20260506222019 59 115 0.0 0.9 0.05 0.11 0.11 99 1005.2
20260506221020 59 80 0.0 1.7 0.04 0.10 0.10 99 1005.3
20260506220020 59 169 0.0 1.7 0.03 0.09 0.09 98 1005.5
20260506215020 59 135 0.0 1.7 0.03 0.08 0.08 98 1005.5
20260506214017 59 133 0.9 2.6 0.02 0.07 0.07 98 1005.5
20260506213017 59 154 0.0 2.6 0.01 0.06 0.06 97 1005.5
20260506212021 59 120 0.0 1.7 0.00 0.06 0.06 97 1005.5
20260506211022 60 143 0.9 2.6 0.01 0.06 0.06 96 1005.7
20260506210021 60 152 0.0 2.6 0.01 0.06 0.06 97 1005.8
20260506205039 60 156 0.0 2.6 0.01 0.06 0.06 96 1005.8
20260506204018 59 145 0.9 1.7 0.01 0.05 0.05 96 1005.9
20260506203018 60 152 0.0 1.7 0.01 0.05 0.05 96 1006.0
20260506202019 60 153 0.9 3.5 0.01 0.05 0.05 96 1006.0
20260506201019 60 168 0.9 3.5 0.01 0.05 0.05 95 1006.1
20260506200039 61 155 0.0 2.6 0.01 0.05 0.05 95 1006.0
20260506195039 61 131 0.0 2.6 0.01 0.05 0.05 94 1006.2
20260506194019 61 157 0.0 1.7 0.01 0.05 0.05 94 1006.3
20260506193040 62 355 0.0 2.6 0.01 0.04 0.04 93 1006.2
20260506192020 62 151 0.0 2.6 0.02 0.04 0.04 94 1006.1
20260506191017 62 136 0.0 2.6 0.02 0.04 0.04 95 1006.2
20260506190018 62 0.0 0.0 0.03 0.04 0.04 94 1006.1
20260506185020 62 131 0.0 1.7 0.04 0.04 0.04 93 1006.2
20260506184020 62 165 0.9 2.6 0.04 0.04 0.04 92 1006.3
20260506183020 63 164 0.0 1.7 0.03 0.03 0.03 90 1006.5
20260506182019 63 0 0.0 1.7 0.03 0.03 0.03 89 1006.6
20260506181038 65 350 0.0 1.7 0.02 0.02 0.02 86 1006.8
20260506175018 69 345 0.9 4.3 0.00 0.00 0.00 73 1006.7
20260506174018 70 343 0.9 2.6 0.00 0.00 0.00 69 1006.5
20260506173018 70 341 0.0 4.3 0.00 0.00 0.00 65 1006.4
20260506172018 70 299 1.7 4.3 0.00 0.00 0.00 64 1006.3
20260506171019 71 241 0.9 3.5 0.00 0.00 0.00 63 1006.4
20260506170020 72 183 0.9 3.5 0.00 0.00 0.00 61 1006.4
20260506165019 72 176 0.9 4.3 0.00 0.00 0.00 61 1006.5
20260506164019 71 9 0.9 3.5 0.00 0.00 0.00 62 1006.6
20260506163019 71 325 0.9 3.5 0.00 0.00 0.00 63 1006.8
20260506162020 71 168 0.9 4.3 0.00 0.00 0.00 63 1007.1
20260506161020 71 52 0.9 5.2 0.00 0.00 0.00 63 1007.2
20260506160100 70 349 0.0 3.5 0.00 0.00 0.00 64 1007.4
20260506155017 70 345 0.9 7.0 0.00 0.00 0.00 64 1007.6
20260506154037 70 272 0.9 3.5 0.00 0.00 0.00 64 1007.6
20260506153017 70 330 0.9 3.5 0.00 0.00 0.00 65 1007.7
20260506152018 69 160 0.9 2.6 0.00 0.00 0.00 67 1007.9
20260506151022 69 178 0.9 2.6 0.00 0.00 0.00 67 1008.1
20260506150021 69 145 0.9 4.3 0.00 0.00 0.00 68 1008.3
20260506145018 69 97 0.0 2.6 0.00 0.00 0.00 68 1008.1
20260506144018 69 347 0.9 2.6 0.00 0.00 0.00 69 1008.4
20260506143040 68 175 0.0 1.7 0.00 0.00 0.00 70 1008.3
20260506142019 68 170 0.0 1.7 0.00 0.00 0.00 71 1008.2
20260506141018 68 166 0.9 2.6 0.00 0.00 0.00 72 1008.1
20260506140019 67 151 0.9 3.5 0.00 0.00 0.00 72 1008.0
20260506135019 67 172 0.9 3.5 0.00 0.00 0.00 72 1008.1
20260506134020 67 160 0.9 2.6 0.00 0.00 0.00 72 1008.2
20260506133020 67 3 0.0 2.6 0.00 0.00 0.00 72 1008.3
20260506132020 66 170 0.0 1.7 0.00 0.00 0.00 73 1008.5
20260506131017 0 349 0.0 0.0 0.00 0.00 0.00
20260506130017 0 31 0.9 4.3 0.00 0.00 0.00
20260506125020 66 11 0.9 4.3 0.00 0.00 0.00 75 1008.7
20260506124020 66 28 0.9 4.3 0.00 0.00 0.00 74 1008.8
20260506123018 66 148 0.0 1.7 0.00 0.00 0.00 74 1008.7
20260506122017 66 164 0.9 2.6 0.00 0.00 0.00 74 1008.5
20260506121018 64 166 0.9 3.5 0.00 0.00 0.00 77 1008.8
20260506120018 64 136 0.0 0.9 0.00 0.00 0.00 77 1008.7
20260506115018 64 165 0.9 3.5 0.00 0.00 0.00 76 1008.6
20260506114018 63 166 0.9 2.6 0.00 0.00 0.00 79 1008.8
20260506113018 62 119 0.0 1.7 0.00 0.00 0.00 81 1008.9
20260506112019 61 130 0.0 1.7 0.00 0.00 0.00 82 1009.0
20260506111019 61 126 0.0 2.6 0.00 0.00 0.00 82 1009.2
20260506110020 60 138 0.0 0.9 0.00 0.00 0.00 82 1009.1
20260506105020 60 146 0.9 2.6 0.00 0.00 0.00 83 1008.9
20260506104020 59 139 0.9 1.7 0.00 0.00 0.00 85 1009.1
20260506103020 58 129 0.0 1.7 0.00 0.00 0.00 86 1008.9
20260506102020 58 114 0.0 1.7 0.00 0.00 0.00 86 1008.8
20260506101019 58 124 0.9 3.5 0.00 0.00 0.00 86 1008.8
20260506100020 58 127 0.0 1.7 0.00 0.00 0.00 86 1008.8
20260506095020 58 134 0.0 1.7 0.00 0.00 0.00 85 1008.7
20260506094017 58 131 0.0 0.9 0.00 0.00 0.00 85 1008.8
20260506093018 59 132 0.0 1.7 0.00 0.00 0.00 84 1008.7
20260506092018 59 131 0.9 2.6 0.00 0.00 0.00 84 1008.6
20260506091021 59 133 0.0 0.9 0.00 0.00 0.00 83 1008.7
20260506090021 59 126 0.0 1.7 0.00 0.00 0.00 83 1008.8
20260506085018 60 121 0.0 1.7 0.00 0.00 0.00 81 1008.8
20260506084018 60 131 0.9 3.5 0.00 0.00 0.00 81 1008.8
20260506083019 60 146 0.0 1.7 0.00 0.00 0.00 80 1008.8
20260506082059 60 150 0.9 2.6 0.00 0.00 0.00 80 1008.7
20260506081019 60 137 0.9 3.5 0.00 0.00 0.00 80 1008.8
20260506073020 61 138 0.0 2.6 0.00 0.00 0.00 77 1008.6
20260506072020 61 126 0.0 1.7 0.00 0.00 0.00 76 1008.5
20260506071020 62 125 0.0 1.7 0.00 0.00 0.00 75 1008.4
20260506062041 63 64 0.0 2.6 0.00 0.00 0.00 71 1008.1
20260506061019 63 349 0.9 5.2 0.00 0.00 0.00 71 1008.1
20260506051019 64 127 0.9 2.6 0.00 0.00 0.00 67 1008.3
20260506045021 64 146 0.9 3.5 0.00 0.00 0.00 67 1008.5
20260506044019 63 155 0.9 2.6 0.00 0.00 0.00 68 1008.5
20260506043017 63 168 0.0 1.7 0.00 0.00 0.00 68 1008.6
20260506042020 63 138 0.0 2.6 0.00 0.00 0.00 68 1008.6
20260506041020 63 112 0.9 2.6 0.00 0.00 0.00 67 1008.6
20260506040020 63 143 0.0 2.6 0.00 0.00 0.00 67 1008.7
20260506035040 63 137 0.9 3.5 0.00 0.00 0.00 67 1008.7
20260506034019 63 96 0.9 2.6 0.00 0.00 0.00 67 1008.7
20260506033017 63 158 0.0 1.7 0.00 0.00 0.00 67 1008.7
20260506032018 63 130 0.0 1.7 0.00 0.00 0.00 67 1008.7
20260506031021 64 104 0.0 1.7 0.00 0.00 0.00 66 1008.7
20260506030038 64 154 0.0 1.7 0.00 0.00 0.00 65 1008.7
20260506025041 64 136 0.0 0.9 0.00 0.00 0.00 65 1008.6
20260506024021 64 0.0 0.0 0.00 0.00 0.00 65 1008.6
20260506023019 64 138 0.0 1.7 0.00 0.00 0.00 65 1008.6
20260506022019 65 119 0.0 0.9 0.00 0.00 0.00 65 1008.5
20260506021019 65 144 0.0 1.7 0.00 0.00 0.00 64 1008.5
20260506020019 66 0.0 0.0 0.00 0.00 0.00 63 1008.5
20260506015019 66 0.0 0.0 0.00 0.00 0.00 62 1008.5
20260506014019 67 159 0.9 1.7 0.00 0.00 0.00 61 1008.4
20260506013038 68 119 0.0 2.6 0.00 0.00 0.00 59 1008.2
20260506012020 68 342 0.0 2.6 0.00 0.00 0.00 59 1008.0
20260506011017 68 119 0.9 2.6 0.00 0.00 0.00 58 1007.7